TimeEST,TemperatureF,Dew PointF,Humidity,Sea Level PressureIn,VisibilityMPH,Wind Direction,Wind SpeedMPH,Gust SpeedMPH,PrecipitationIn,Events,Conditions,WindDirDegrees,DateUTC
12:15 AM,39.4,34.5,83,30.25,10.0,NW,3.5,-,N/A,,Clear,320,2012-11-20 05:15:00
12:35 AM,39.2,34.2,82,30.24,10.0,NW,4.6,-,N/A,,Clear,310,2012-11-20 05:35:00
12:55 AM,38.8,34.2,83,30.24,10.0,Calm,Calm,-,N/A,,Clear,0,2012-11-20 05:55:00
1:15 AM,39.2,34.3,83,30.24,10.0,Calm,Calm,-,N/A,,Clear,0,2012-11-20 06:15:00
1:35 AM,39.0,34.2,83,30.24,10.0,Calm,Calm,-,N/A,,Clear,0,2012-11-20 06:35:00
1:55 AM,38.7,34.0,83,30.23,10.0,Calm,Calm,-,N/A,,Clear,0,2012-11-20 06:55:00
2:15 AM,38.3,33.8,84,30.23,10.0,Calm,Calm,-,N/A,,Clear,0,2012-11-20 07:15:00
2:35 AM,37.4,33.8,87,30.22,10.0,Calm,Calm,-,N/A,,Clear,0,2012-11-20 07:35:00
2:55 AM,37.6,33.3,84,30.22,10.0,Calm,Calm,-,N/A,,Clear,0,2012-11-20 07:55:00
3:15 AM,37.4,33.3,85,30.22,10.0,Calm,Calm,-,N/A,,Clear,0,2012-11-20 08:15:00
3:35 AM,37.4,32.7,83,30.22,10.0,WNW,3.5,-,N/A,,Clear,300,2012-11-20 08:35:00
7:15 AM,36.9,32.0,83,30.21,10.0,Calm,Calm,-,N/A,,Clear,0,2012-11-20 12:15:00
7:35 AM,38.1,32.7,81,30.21,10.0,Calm,Calm,-,N/A,,Clear,0,2012-11-20 12:35:00
7:55 AM,38.7,33.3,81,30.21,10.0,Calm,Calm,-,N/A,,Clear,0,2012-11-20 12:55:00
8:15 AM,40.5,33.8,77,30.21,10.0,Calm,Calm,-,N/A,,Clear,0,2012-11-20 13:15:00
8:35 AM,42.1,34.0,73,30.20,10.0,NNE,3.5,-,N/A,,Clear,30,2012-11-20 13:35:00
8:55 AM,43.2,34.0,70,30.20,10.0,Calm,Calm,-,N/A,,Clear,0,2012-11-20 13:55:00
9:15 AM,45.5,34.0,64,30.19,10.0,NNE,5.8,-,N/A,,Clear,30,2012-11-20 14:15:00
9:35 AM,45.7,33.8,63,30.20,10.0,NNE,5.8,-,N/A,,Clear,20,2012-11-20 14:35:00
9:55 AM,46.4,33.6,61,30.19,10.0,NNE,5.8,-,N/A,,Clear,30,2012-11-20 14:55:00
10:15 AM,46.9,34.0,61,30.19,10.0,NNE,3.5,-,N/A,,Clear,30,2012-11-20 15:15:00
10:35 AM,48.0,34.2,59,30.19,10.0,NNW,3.5,-,N/A,,Clear,340,2012-11-20 15:35:00
10:55 AM,49.8,33.4,53,30.19,10.0,NNE,5.8,-,N/A,,Clear,30,2012-11-20 15:55:00
11:15 AM,50.5,33.1,51,30.17,10.0,ENE,4.6,-,N/A,,Clear,60,2012-11-20 16:15:00
11:35 AM,51.3,32.0,48,30.16,10.0,North,5.8,-,N/A,,Clear,10,2012-11-20 16:35:00
11:55 AM,52.2,31.6,46,30.14,10.0,NNE,8.1,-,N/A,,Clear,30,2012-11-20 16:55:00
12:15 PM,52.2,31.8,46,30.15,10.0,NE,6.9,-,N/A,,Clear,40,2012-11-20 17:15:00
12:35 PM,51.8,31.6,46,30.14,10.0,NNE,4.6,-,N/A,,Clear,20,2012-11-20 17:35:00
12:55 PM,52.5,31.1,44,30.14,10.0,NNE,4.6,-,N/A,,Clear,30,2012-11-20 17:55:00
1:15 PM,52.9,30.2,42,30.14,10.0,NNE,5.8,-,N/A,,Clear,30,2012-11-20 18:15:00
1:35 PM,52.0,29.7,42,30.12,10.0,NNE,3.5,-,N/A,,Clear,20,2012-11-20 18:35:00
1:55 PM,52.3,29.3,41,30.13,10.0,North,4.6,-,N/A,,Clear,360,2012-11-20 18:55:00
2:15 PM,53.2,29.7,40,30.12,10.0,NNE,5.8,-,N/A,,Clear,20,2012-11-20 19:15:00
2:35 PM,52.2,29.3,41,30.11,10.0,North,5.8,-,N/A,,Clear,10,2012-11-20 19:35:00
2:55 PM,52.0,28.2,40,30.12,10.0,North,4.6,-,N/A,,Clear,360,2012-11-20 19:55:00
3:15 PM,52.2,28.9,41,30.12,10.0,NNE,5.8,-,N/A,,Clear,30,2012-11-20 20:15:00
3:35 PM,51.8,29.7,43,30.12,10.0,NE,3.5,-,N/A,,Clear,40,2012-11-20 20:35:00
3:55 PM,51.3,29.3,43,30.12,10.0,North,4.6,-,N/A,,Clear,10,2012-11-20 20:55:00
4:15 PM,51.1,28.6,42,30.12,10.0,North,4.6,-,N/A,,Clear,360,2012-11-20 21:15:00
4:35 PM,50.9,28.4,42,30.12,10.0,NNE,4.6,-,N/A,,Clear,20,2012-11-20 21:35:00
4:55 PM,50.5,28.4,42,30.13,10.0,North,3.5,-,N/A,,Clear,350,2012-11-20 21:55:00
5:15 PM,49.8,28.9,45,30.13,10.0,Calm,Calm,-,N/A,,Clear,0,2012-11-20 22:15:00
5:35 PM,49.6,28.9,45,30.13,10.0,NNE,3.5,-,N/A,,Clear,20,2012-11-20 22:35:00
5:55 PM,50.5,28.9,43,30.14,10.0,Calm,Calm,-,N/A,,Clear,0,2012-11-20 22:55:00
6:15 PM,50.4,29.7,45,30.14,10.0,ENE,3.5,-,N/A,,Clear,70,2012-11-20 23:15:00
6:35 PM,50.0,32.0,50,30.14,10.0,Calm,Calm,-,N/A,,Clear,0,2012-11-20 23:35:00
6:55 PM,49.3,30.9,49,30.14,10.0,NE,4.6,-,N/A,,Clear,40,2012-11-20 23:55:00
7:15 PM,49.1,32.0,52,30.14,10.0,Calm,Calm,-,N/A,,Clear,0,2012-11-21 00:15:00
7:35 PM,48.4,32.0,53,30.14,10.0,Calm,Calm,-,N/A,,Clear,0,2012-11-21 00:35:00
7:55 PM,48.2,32.2,54,30.14,10.0,Calm,Calm,-,N/A,,Clear,0,2012-11-21 00:55:00
8:15 PM,48.4,33.1,56,30.14,10.0,Calm,Calm,-,N/A,,Clear,0,2012-11-21 01:15:00
8:35 PM,48.4,33.8,57,30.14,10.0,Calm,Calm,-,N/A,,Clear,0,2012-11-21 01:35:00
8:55 PM,47.5,34.5,61,30.14,10.0,Calm,Calm,-,N/A,,Clear,0,2012-11-21 01:55:00
9:15 PM,47.3,34.7,62,30.15,10.0,Calm,Calm,-,N/A,,Clear,0,2012-11-21 02:15:00
9:35 PM,46.9,34.7,62,30.15,10.0,Calm,Calm,-,N/A,,Clear,0,2012-11-21 02:35:00
9:55 PM,46.4,34.2,62,30.15,10.0,Calm,Calm,-,N/A,,Clear,0,2012-11-21 02:55:00
10:15 PM,45.9,34.0,63,30.15,10.0,Calm,Calm,-,N/A,,Clear,0,2012-11-21 03:15:00
10:35 PM,45.9,34.7,65,30.15,10.0,North,3.5,-,N/A,,Clear,360,2012-11-21 03:35:00
10:55 PM,45.9,34.7,65,30.15,10.0,Calm,Calm,-,N/A,,Clear,0,2012-11-21 03:55:00
11:15 PM,45.5,34.9,66,30.15,10.0,North,3.5,-,N/A,,Clear,360,2012-11-21 04:15:00
11:35 PM,45.7,35.2,67,30.15,10.0,North,3.5,-,N/A,,Clear,350,2012-11-21 04:35:00
11:55 PM,45.5,35.2,67,30.15,10.0,North,4.6,-,N/A,,Clear,350,2012-11-21 04:55:00